[[{"header":{"parameterUnit":"m.s-1","parameterCategory":1,"la1":30.2991,"la2":30.254,"lo1":-89.0895,"lo2":-89.0444,"dy":0.0017,"dx":0.0017,"nx":28,"ny":28,"refTime":"2024-05-30T21:00:00:Z","depth":0,"parameterNumber":2,"parameterNumberName":"U-component_of_WINDS"},"data":[0,0,0,0,0,0,0,0,0,0,0,0,0,0,0,0,0,0,0,0,0,0,0,0,0,0,0,0,0,0,0,0,0,0,0,0,0,0,0,0,0,0,0,0,0,0,0,0,0,0,0,0,0,0,0,0,0,0,-2.3558,-2.3558,0,-2.3589,-2.359,-2.359,-2.356,-2.3558,-2.3557,-2.3556,-2.3588,-2.359,-2.3592,0,0,0,0,0,0,0,0,0,0,0,0,0,-2.3472,-2.3473,-2.3558,-2.3558,-2.3559,-2.3589,-2.359,-2.359,-2.356,-2.3558,-2.3557,-2.3556,-2.3588,-2.359,-2.3592,0,0,0,0,0,0,0,0,0,0,0,0,0,-2.3507,-2.3474,-2.3558,-2.3547,-2.3547,-2.3589,-2.359,-2.359,-2.356,-2.3558,-2.3556,-2.3555,-2.3587,-2.359,-2.3593,-2.3647,0,0,-2.3602,-2.3603,0,0,0,0,0,0,0,0,-2.3505,-2.351,-2.3548,-2.3548,-2.3547,-2.3569,-2.3571,-2.3609,-2.3561,-2.3555,-2.3556,-2.3554,-2.3583,-2.3586,-2.3596,-2.3649,-2.365,-2.3602,-2.3604,-2.3605,-2.3606,0,0,0,0,0,0,0,-2.3502,-2.3508,-2.357,-2.3549,-2.3548,-2.3541,-2.3544,-2.3578,-2.3579,-2.3555,-2.3553,-2.3557,-2.3583,-2.3593,-2.3597,-2.3651,-2.3602,-2.3605,-2.3606,-2.3608,-2.3749,-2.3751,0,0,0,0,0,0,-2.3501,-2.3507,-2.3569,-2.3571,-2.3521,-2.3544,-2.3547,-2.3564,-2.3578,-2.3579,-2.3559,-2.3556,-2.3589,-2.3593,-2.3598,-2.3662,-2.3605,-2.3608,-2.361,-2.3747,-2.3749,-2.3752,0,0,0,0,0,0,-2.3499,-2.3507,-2.3568,-2.3538,-2.3546,-2.3547,-2.3566,-2.3565,-2.3576,-2.3581,-2.3581,-2.357,-2.3588,-2.3594,-2.3635,-2.3663,-2.3609,-2.3612,-2.3745,-2.3748,-2.375,-2.3791,0,0,0,0,0,0,-2.3497,-2.3507,-2.3527,-2.3539,-2.3547,-2.3605,-2.3568,-2.3567,-2.3581,-2.3578,-2.3591,-2.3592,-2.3587,-2.3631,-2.3638,-2.3666,-2.3614,-2.3742,-2.3746,-2.375,-2.3787,-2.3795,-2.3802,0,0,0,0,0,-2.3494,-2.3538,-2.3528,-2.3536,-2.3573,-2.3606,-2.3611,-2.3605,-2.3584,-2.3604,-2.3608,-2.3591,-2.3659,-2.3635,-2.3643,-2.3672,-2.374,-2.3745,-2.3749,-2.3784,-2.3793,-2.3801,0,0,0,0,0,0,-2.3529,-2.3539,-2.3529,-2.3578,-2.3591,-2.3601,-2.3627,-2.3615,-2.3635,-2.3631,-2.3622,-2.3625,-2.3669,-2.3675,-2.3649,-2.3726,-2.3696,-2.3702,-2.372,-2.3729,-2.3736,-2.3733,-2.3617,0,0,0,0,0,-2.3542,-2.3569,-2.3576,-2.3618,-2.3626,-2.3625,-2.364,-2.3633,-2.3647,-2.3653,-2.3659,-2.3674,-2.3698,-2.3714,-2.3737,-2.3788,-2.3791,-2.3812,-2.382,-2.3825,-2.383,-2.3857,-2.3867,-2.3766,-2.3766,-2.3766,0,0,-2.357,-2.3579,-2.3596,-2.3625,-2.3635,-2.3662,-2.363,-2.3661,-2.368,-2.3658,-2.3697,-2.3702,-2.3717,-2.3764,-2.3785,-2.377,-2.3859,-2.3831,-2.3836,-2.3838,-2.3863,-2.3873,-2.3881,-2.3769,-2.3769,-2.3768,0,0,-2.3634,-2.3644,-2.368,-2.3691,-2.3706,-2.3706,-2.3714,-2.3726,-2.3729,-2.3768,-2.3751,-2.3775,-2.3817,-2.3829,-2.384,-2.3909,-2.3894,-2.3917,-2.3954,-2.398,-2.3988,-2.3995,-2.4019,-2.4027,-2.3922,-2.3922,-2.3922,0,-2.3667,-2.3707,-2.37,-2.3731,-2.3744,-2.3725,-2.3761,-2.3772,-2.3794,-2.3804,-2.3787,-2.3839,-2.3848,-2.3897,-2.3914,-2.3924,-2.3933,-2.3914,-2.3988,-2.3995,-2.4001,-2.4023,-2.4032,-2.3925,-2.3924,-2.3924,-2.3924,0,-2.3746,-2.3774,-2.3801,-2.3822,-2.3839,-2.3873,-2.387,-2.3888,-2.3881,-2.3882,-2.3922,-2.3932,-2.3956,-2.3968,-2.3961,-2.4016,-2.4006,-2.3989,-2.3959,-2.4013,-2.4034,-2.4043,-2.3928,-2.3927,-2.3927,-2.3926,0,0,-2.3832,-2.3849,-2.3859,-2.3868,-2.3884,-2.3906,-2.3939,-2.3962,-2.3977,-2.3993,-2.402,-2.4056,-2.404,-2.4053,-2.4048,-2.4071,-2.4124,-2.4051,-2.4052,-2.4063,-2.4184,-2.4195,-2.4205,-2.4115,-2.4117,-2.4118,-2.4182,0,-2.3896,-2.3952,-2.3947,-2.4,-2.4025,-2.4008,-2.4036,-2.4049,-2.4051,-2.4073,-2.4076,-2.4102,-2.4079,-2.4087,-2.411,-2.4113,-2.4148,-2.4109,-2.4139,-2.4141,-2.4135,-2.4216,-2.4229,-2.4288,-2.419,-2.4192,-2.4193,0,-2.3978,-2.3996,-2.4052,-2.4063,-2.4074,-2.4099,-2.412,-2.4142,-2.4156,-2.4156,-2.4171,-2.4161,-2.4194,-2.4164,-2.4209,-2.4182,-2.4195,-2.4199,-2.4201,-2.4202,-2.4169,-2.4219,-2.4307,-2.4316,-2.4205,-2.4204,-2.4204,0,-2.4033,-2.4073,-2.4111,-2.412,-2.4134,-2.4152,-2.4159,-2.4172,-2.4186,-2.4205,-2.4214,-2.4236,-2.4248,-2.4265,-2.4262,-2.4241,-2.4308,-2.4278,-2.4308,-2.4308,-2.4321,-2.432,-2.4412,-2.4332,-2.4332,-2.4332,-2.4331,0,-2.4104,-2.4139,-2.4136,-2.4159,-2.4198,-2.4191,-2.4229,-2.4234,-2.4245,-2.4269,-2.4256,-2.4279,-2.4274,-2.4296,-2.4294,-2.4331,-2.4337,-2.4337,-2.4336,-2.4338,-2.4338,-2.4345,-2.434,-2.4334,-2.4333,-2.4333,-2.4333,0,-2.4173,-2.4172,-2.4213,-2.4223,-2.4227,-2.4254,-2.4263,-2.4285,-2.4287,-2.4317,-2.4324,-2.4326,-2.4352,-2.4351,-2.4381,-2.4379,-2.4424,-2.4419,-2.4419,-2.4417,-2.4447,-2.4444,-2.4545,-2.4558,-2.4471,-2.4472,-2.4473,0,-2.4218,-2.4244,-2.4257,-2.4272,-2.428,-2.4304,-2.4319,-2.4314,-2.4329,-2.4347,-2.4367,-2.4392,-2.4411,-2.4454,-2.4458,-2.448,-2.4475,-2.4509,-2.4478,-2.4479,-2.4474,-2.4472,-2.4474,-2.4514,-2.4515,-2.4516,-2.4517,0,-2.4297,-2.4295,-2.4316,-2.4338,-2.4355,-2.4372,-2.4387,-2.44,-2.4396,-2.4414,-2.4441,-2.4456,-2.4486,-2.451,-2.4532,-2.4539,-2.4527,-2.4527,-2.4535,-2.4536,-2.4535,-2.4535,-2.4434,-2.4524,-2.4523,-2.4523,-2.4522,-2.4522,-2.4354,-2.4376,-2.4389,-2.4413,-2.4423,-2.4438,-2.4459,-2.4463,-2.4484,-2.4508,-2.4504,-2.4533,-2.4546,-2.4574,-2.4583,-2.4606,-2.4594,-2.4606,-2.4608,-2.4611,-2.4614,-2.4532,-2.461,-2.461,-2.461,-2.461,-2.4609,0,-2.4432,-2.4439,-2.4461,-2.4482,-2.4501,-2.4488,-2.4504,-2.4521,-2.4547,-2.456,-2.4579,-2.4609,-2.4633,-2.4639,-2.4662,-2.4679,-2.4674,-2.4685,-2.4683,-2.4685,-2.4624,-2.4614,-2.4688,-2.4688,-2.4688,-2.4688,-2.4688,-2.4688,-2.4474,-2.4511,-2.451,-2.4552,-2.4559,-2.4587,-2.4597,-2.461,-2.4621,-2.4654,-2.4674,-2.4678,-2.4688,-2.4712,-2.4733,-2.4734,-2.4742,-2.4755,-2.4754,-2.4697,-2.4689,-2.4682,-2.4672,-2.4758,-2.4758,-2.4813,-2.4814,-2.4814]},{"header":{"parameterUnit":"m.s-1","parameterCategory":1,"la1":30.2991,"la2":30.254,"lo1":-89.0895,"lo2":-89.0444,"dy":0.0017,"dx":0.0017,"nx":28,"ny":28,"refTime":"2024-05-30T21:00:00:Z","depth":0,"parameterNumber":3,"parameterNumberName":"V-component_of_WINDS"},"data":[0,0,0,0,0,0,0,0,0,0,0,0,0,0,0,0,0,0,0,0,0,0,0,0,0,0,0,0,0,0,0,0,0,0,0,0,0,0,0,0,0,0,0,0,0,0,0,0,0,0,0,0,0,0,0,0,0,0,3.9164,3.9164,0,3.9177,3.9177,3.9178,3.9113,3.9112,3.911,3.9108,3.912,3.9122,3.9124,0,0,0,0,0,0,0,0,0,0,0,0,0,3.9082,3.9083,3.9164,3.9164,3.9165,3.9177,3.9177,3.9178,3.9114,3.9111,3.9109,3.9107,3.9119,3.9121,3.9124,0,0,0,0,0,0,0,0,0,0,0,0,0,3.9108,3.9084,3.9164,3.9134,3.9132,3.9177,3.9177,3.9178,3.9114,3.9111,3.9109,3.9106,3.9118,3.9121,3.9124,3.9198,0,0,3.9133,3.9135,0,0,0,0,0,0,0,0,3.9107,3.9111,3.9138,3.9136,3.9134,3.9141,3.9152,3.9185,3.9115,3.9121,3.9108,3.9105,3.9129,3.9131,3.9139,3.9199,3.9199,3.9134,3.9136,3.9137,3.9138,0,0,0,0,0,0,0,3.9105,3.911,3.9169,3.9139,3.9136,3.9119,3.912,3.9158,3.914,3.912,3.9115,3.9118,3.9127,3.9137,3.9139,3.92,3.9134,3.9136,3.9138,3.9139,3.932,3.9322,0,0,0,0,0,0,3.9108,3.9109,3.9169,3.917,3.9113,3.9123,3.9124,3.9141,3.914,3.9137,3.912,3.9115,3.9133,3.9136,3.9139,3.9225,3.9137,3.914,3.9141,3.9317,3.932,3.9324,0,0,0,0,0,0,3.9106,3.9113,3.9168,3.9138,3.9144,3.9128,3.9148,3.9143,3.9152,3.914,3.9136,3.9134,3.9131,3.9135,3.9184,3.9224,3.9141,3.9144,3.9313,3.9318,3.9322,3.9398,0,0,0,0,0,0,3.9104,3.9113,3.9142,3.9139,3.9146,3.9214,3.915,3.9145,3.9158,3.9151,3.9151,3.9148,3.9129,3.918,3.9187,3.9227,3.9146,3.9309,3.9315,3.9321,3.9391,3.9404,3.9415,0,0,0,0,0,3.9101,3.9163,3.9144,3.9151,3.9181,3.9216,3.922,3.9196,3.9162,3.919,3.9182,3.9148,3.9219,3.9185,3.9193,3.9235,3.9307,3.9314,3.932,3.9386,3.9402,3.9415,0,0,0,0,0,0,3.9169,3.9162,3.9141,3.9203,3.9211,3.9205,3.924,3.9214,3.9231,3.9223,3.9193,3.9194,3.9248,3.9246,3.9209,3.9306,3.9257,3.9265,3.9304,3.9319,3.9331,3.9329,3.9149,0,0,0,0,0,3.9192,3.9222,3.9213,3.9269,3.9274,3.9257,3.9271,3.9252,3.9259,3.9261,3.9257,3.9264,3.9287,3.9303,3.9325,3.9392,3.939,3.9424,3.9436,3.9445,3.9452,3.9486,3.9501,3.9345,3.9345,3.9345,0,0,3.9238,3.9238,3.9258,3.9283,3.9286,3.9317,3.926,3.9294,3.9316,3.9266,3.9312,3.9309,3.9315,3.9373,3.9398,3.9373,3.9495,3.9454,3.9462,3.9463,3.9495,3.9509,3.9523,3.935,3.9349,3.9348,0,0,3.9338,3.9341,3.9388,3.9393,3.9399,3.9387,3.9399,3.9397,3.9393,3.9439,3.9402,3.9428,3.9469,3.9474,3.9483,3.9585,3.9554,3.9593,3.9653,3.9687,3.9699,3.971,3.9745,3.9758,3.96,3.96,3.9601,0,3.9394,3.9439,3.9415,3.9452,3.9463,3.942,3.9466,3.9472,3.9485,3.9494,3.9466,3.9517,3.9518,3.9576,3.9601,3.961,3.962,3.9591,3.97,3.971,3.9719,3.9752,3.9766,3.9605,3.9604,3.9604,3.9603,0,3.9507,3.9539,3.9576,3.959,3.9605,3.9647,3.9628,3.9646,3.9627,3.9618,3.9664,3.9664,3.9684,3.9697,3.9678,3.9752,3.9736,3.9705,3.9655,3.9739,3.9769,3.9782,3.9611,3.961,3.9608,3.9607,0,0,3.9649,3.9649,3.9663,3.9668,3.9673,3.9696,3.9736,3.9756,3.9771,3.9782,3.9813,3.985,3.9821,3.983,3.9812,3.9841,3.992,3.9806,3.9805,3.9826,4.0,4.0023,4.0038,3.9901,3.9903,3.9905,3.9999,0,3.9745,3.9813,3.9791,3.9859,3.9887,3.9847,3.9881,3.9887,3.988,3.9902,3.9894,3.992,3.988,3.9885,3.9913,3.9905,3.9955,3.9898,3.9928,3.993,3.9926,4.0054,4.0077,4.0166,4.0011,4.0013,4.0015,0,3.9866,3.9882,3.9952,3.9951,3.9962,3.9993,4.0009,4.0032,4.0038,4.003,4.0041,4.0016,4.0053,4.0005,4.0056,4.0018,4.0029,4.0027,4.003,4.003,3.9976,4.0056,4.0194,4.0207,4.0033,4.0032,4.003,0,3.996,3.9999,4.0046,4.0052,4.0053,4.0075,4.0076,4.0079,4.0092,4.0107,4.0114,4.0133,4.0143,4.0157,4.0138,4.0105,4.0191,4.0141,4.0184,4.0185,4.0203,4.0201,4.0343,4.0214,4.0213,4.0213,4.0213,0,4.0069,4.0113,4.0088,4.0117,4.0165,4.014,4.0188,4.0185,4.0188,4.0215,4.0182,4.0207,4.0181,4.0204,4.0189,4.0232,4.0237,4.0232,4.0227,4.0233,4.0234,4.0239,4.0232,4.0217,4.0216,4.0215,4.0215,0,4.0181,4.0167,4.0215,4.0211,4.0211,4.0247,4.0243,4.0269,4.026,4.0294,4.0301,4.0286,4.0311,4.0294,4.0319,4.0309,4.0365,4.0353,4.0363,4.0359,4.0403,4.0399,4.0551,4.0569,4.043,4.0431,4.0433,0,4.025,4.0283,4.0284,4.0299,4.0303,4.0329,4.0342,4.0319,4.0334,4.0343,4.0367,4.039,4.0407,4.0449,4.044,4.0459,4.0446,4.0498,4.0448,4.0454,4.0444,4.0442,4.0444,4.0507,4.0509,4.051,4.0511,0,4.0374,4.0365,4.0386,4.0404,4.0421,4.0434,4.0445,4.0459,4.0436,4.0455,4.048,4.0493,4.0519,4.0541,4.0557,4.0557,4.053,4.0527,4.0538,4.0544,4.0548,4.0545,4.0389,4.0523,4.0522,4.0521,4.0521,4.052,4.0466,4.0493,4.0497,4.0521,4.0527,4.0537,4.0561,4.0555,4.0576,4.0595,4.0581,4.0611,4.0615,4.0633,4.0637,4.066,4.0638,4.0654,4.0658,4.0662,4.0667,4.0546,4.0663,4.0663,4.0662,4.0662,4.0662,0,4.0587,4.0587,4.061,4.0625,4.0644,4.0618,4.0628,4.0645,4.0672,4.0679,4.0696,4.0725,4.0747,4.074,4.0759,4.0778,4.0766,4.0784,4.0781,4.0781,4.0686,4.0674,4.0793,4.0793,4.0793,4.0793,4.0793,4.0793,4.0651,4.0695,4.0687,4.0733,4.0734,4.0763,4.0771,4.078,4.0785,4.0819,4.0837,4.0832,4.0833,4.0852,4.0871,4.0868,4.0876,4.0898,4.089,4.0801,4.0788,4.0776,4.0764,4.09,4.09,4.0983,4.0984,4.0985]}]]